N5TDX Weather Reports


time (UTC)temp
C
wind
direction
speed
KPH
gust
KPH
rain 1hr
cm
rain 24hr
cm
rain mn
cm
humidity
%
barometer
mb
20260906225826 36 56 6.4 9.7 0.00 0.00 0.00 36 1008.0
20260906225322 37 99 4.8 11.3 0.00 0.00 0.00 36 1007.8
20260906224817 36 184 3.2 4.8 0.00 0.00 0.00 36 1007.9
20260906224314 37 93 1.6 9.7 0.00 0.00 0.00 37 1007.9
20260906223810 37 89 6.4 11.3 0.00 0.00 0.00 36 1008.1
20260906223306 37 75 3.2 6.4 0.00 0.00 0.00 37 1007.9
20260906222804 37 40 6.4 12.9 0.00 0.00 0.00 36 1007.9
20260906222306 37 84 3.2 6.4 0.00 0.00 0.00 36 1008.0
20260906221801 37 73 1.6 6.4 0.00 0.00 0.00 36 1008.3
20260906221301 37 71 6.4 11.3 0.00 0.00 0.00 36 1008.1
20260906220757 37 139 6.4 12.9 0.00 0.00 0.00 36 1008.3
20260906220251 36 257 0.0 3.2 0.00 0.00 0.00 36 1008.3
20260906215751 37 99 9.7 12.9 0.00 0.00 0.00 35 1008.1
20260906215251 37 56 1.6 6.4 0.00 0.00 0.00 36 1008.4
20260906214749 37 99 9.7 12.9 0.00 0.00 0.00 36 1008.2
20260906214244 36 193 6.4 6.4 0.00 0.00 0.00 37 1008.2
20260906213743 36 64 1.6 3.2 0.00 0.00 0.00 37 1008.5
20260906213243 37 109 6.4 11.3 0.00 0.00 0.00 36 1008.6
20260906212740 37 104 8.0 11.3 0.00 0.00 0.00 36 1008.5
20260906212236 37 45 1.6 12.9 0.00 0.00 0.00 37 1008.4
20260906211736 37 62 3.2 6.4 0.00 0.00 0.00 36 1008.5
20260906211231 37 55 1.6 6.4 0.00 0.00 0.00 36 1008.6
20260906210726 37 50 4.8 12.9 0.00 0.00 0.00 35 1008.7
20260906210221 37 154 0.0 9.7 0.00 0.00 0.00 36 1009.0
20260906205716 37 105 1.6 4.8 0.00 0.00 0.00 35 1009.0
20260906205213 37 83 4.8 14.5 0.00 0.00 0.00 36 1009.0
20260906204713 38 31 3.2 4.8 0.00 0.00 0.00 35 1008.9
20260906204212 38 32 3.2 12.9 0.00 0.00 0.00 35 1008.9
20260906203712 38 65 1.6 4.8 0.00 0.00 0.00 36 1008.9
20260906203207 37 48 3.2 6.4 0.00 0.00 0.00 36 1009.1
20260906202704 38 71 4.8 14.5 0.00 0.00 0.00 36 1009.3
20260906202203 38 211 3.2 9.7 0.00 0.00 0.00 36 1009.3
20260906201658 37 11 6.4 9.7 0.00 0.00 0.00 36 1009.0
20260906201157 38 36 6.4 12.9 0.00 0.00 0.00 35 1009.4
20260906200654 38 38 3.2 3.2 0.00 0.00 0.00 36 1009.3
20260906200149 38 100 6.4 11.3 0.00 0.00 0.00 36 1009.5
20260906195650 37 118 6.4 14.5 0.00 0.00 0.00 36 1009.5
20260906195146 37 90 1.6 11.3 0.00 0.00 0.00 38 1009.3
20260906194642 37 111 3.2 11.3 0.00 0.00 0.00 38 1009.6
20260906194137 37 50 1.6 6.4 0.00 0.00 0.00 38 1009.5
20260906193632 37 62 1.6 9.7 0.00 0.00 0.00 38 1009.7
20260906193127 38 93 3.2 11.3 0.00 0.00 0.00 38 1009.5
20260906192623 38 86 6.4 11.3 0.00 0.00 0.00 37 1009.7
20260906192122 38 114 8.0 11.3 0.00 0.00 0.00 37 1009.7
20260906191618 38 109 1.6 4.8 0.00 0.00 0.00 37 1009.9
20260906191117 38 69 3.2 4.8 0.00 0.00 0.00 38 1009.9
20260906190616 38 71 6.4 11.3 0.00 0.00 0.00 37 1010.0
20260906190111 38 86 4.8 6.4 0.00 0.00 0.00 38 1009.9
20260906185610 38 112 8.0 11.3 0.00 0.00 0.00 38 1010.0
20260906185109 38 114 3.2 9.7 0.00 0.00 0.00 37 1010.0
20260906184604 37 162 1.6 6.4 0.00 0.00 0.00 38 1010.2
20260906184100 37 40 3.2 4.8 0.00 0.00 0.00 39 1010.5
20260906183555 37 51 3.2 11.3 0.00 0.00 0.00 38 1010.3
20260906183051 37 100 6.4 9.7 0.00 0.00 0.00 38 1010.5
20260906182546 37 91 0.0 6.4 0.00 0.00 0.00 39 1010.7
20260906182042 37 126 6.4 6.4 0.00 0.00 0.00 38 1010.6
20260906181537 37 138 4.8 9.7 0.00 0.00 0.00 39 1010.7
20260906181034 37 161 1.6 6.4 0.00 0.00 0.00 39 1010.8
20260906180534 37 318 1.6 4.8 0.00 0.00 0.00 39 1010.7
20260906180033 37 101 9.7 14.5 0.00 0.00 0.00 39 1010.9
20260906175532 36 9 0.0 1.6 0.00 0.00 0.00 41 1010.8
20260906175032 36 47 1.6 9.7 0.00 0.00 0.00 40 1010.9
20260906174530 36 99 9.7 12.9 0.00 0.00 0.00 41 1011.0
20260906174025 36 137 4.8 14.5 0.00 0.00 0.00 41 1011.2
20260906173520 36 86 6.4 16.1 0.00 0.00 0.00 41 1011.4
20260906173017 36 24 3.2 6.4 0.00 0.00 0.00 41 1011.3
20260906172511 37 155 3.2 4.8 0.00 0.00 0.00 41 1011.4
20260906172006 36 111 3.2 12.9 0.00 0.00 0.00 41 1011.5
20260906171501 36 74 1.6 6.4 0.00 0.00 0.00 40 1011.6
20260906170956 36 144 3.2 4.8 0.00 0.00 0.00 40 1011.6
20260906170452 36 226 3.2 6.4 0.00 0.00 0.00 42 1011.9
20260906165949 36 89 3.2 9.7 0.00 0.00 0.00 44 1011.8
20260906165448 36 127 1.6 3.2 0.00 0.00 0.00 44 1011.7
20260906164943 36 143 4.8 4.8 0.00 0.00 0.00 45 1012.0
20260906164442 35 63 1.6 9.7 0.00 0.00 0.00 44 1011.8
20260906163939 35 35 1.6 4.8 0.00 0.00 0.00 45 1011.9
20260906163434 35 62 3.2 3.2 0.00 0.00 0.00 45 1011.9
20260906162932 35 76 6.4 9.7 0.00 0.00 0.00 45 1011.9
20260906162431 35 64 1.6 11.3 0.00 0.00 0.00 46 1012.0
20260906161927 35 68 3.2 4.8 0.00 0.00 0.00 47 1012.0
20260906161426 35 90 1.6 3.2 0.00 0.00 0.00 48 1012.0
20260906160926 34 84 6.4 9.7 0.00 0.00 0.00 50 1012.0
20260906160424 33 36 3.2 6.4 0.00 0.00 0.00 52 1011.8
20260906155923 33 81 6.4 9.7 0.00 0.00 0.00 52 1011.7
20260906155416 33 114 3.2 3.2 0.00 0.00 0.00 53 1012.0
20260906154913 33 60 0.0 4.8 0.00 0.00 0.00 54 1011.9
20260906154413 33 78 3.2 3.2 0.00 0.00 0.00 52 1011.7
20260906153912 33 3 0.0 1.6 0.00 0.00 0.00 54 1012.0
20260906153410 33 29 1.6 6.4 0.00 0.00 0.00 54 1012.1
20260906152906 33 78 3.2 4.8 0.00 0.00 0.00 54 1012.1
20260906152400 33 110 1.6 4.8 0.00 0.00 0.00 54 1011.9
20260906151900 32 86 0.0 3.2 0.00 0.00 0.00 56 1011.5
20260906151355 33 102 3.2 4.8 0.00 0.00 0.00 54 1011.7
20260906150851 33 128 1.6 3.2 0.00 0.00 0.00 54 1011.6
20260906150346 32 106 1.6 3.2 0.00 0.00 0.00 56 1011.6
20260906145845 32 98 1.6 4.8 0.00 0.00 0.00 57 1011.7
20260906145344 32 77 0.0 4.8 0.00 0.00 0.00 57 1011.7
20260906144839 32 98 3.2 4.8 0.00 0.00 0.00 58 1011.6
20260906144329 31 150 1.6 3.2 0.00 0.00 0.00 58 1011.5
20260906143828 31 119 3.2 3.2 0.00 0.00 0.00 60 1011.8
20260906143325 31 105 0.0 3.2 0.00 0.00 0.00 60 1011.6
20260906142820 31 112 1.6 1.6 0.00 0.00 0.00 61 1011.4
20260906142315 30 142 0.0 3.2 0.00 0.00 0.00 62 1011.8
20260906141814 30 100 1.6 3.2 0.00 0.00 0.00 62 1011.6
20260906141309 30 231 1.6 3.2 0.00 0.00 0.00 63 1011.5
20260906140808 30 106 1.6 3.2 0.00 0.00 0.00 64 1011.7
20260906140303 30 62 0.0 1.6 0.00 0.00 0.00 65 1011.5
20260906135800 29 82 1.6 3.2 0.00 0.00 0.00 65 1011.5
20260906135255 29 215 0.0 0.0 0.00 0.00 0.00 66 1011.6
20260906134751 28 109 0.0 1.6 0.00 0.00 0.00 67 1011.4
20260906134246 28 78 1.6 3.2 0.00 0.00 0.00 68 1011.5
20260906133742 28 105 1.6 3.2 0.00 0.00 0.00 69 1011.3
20260906133237 28 94 3.2 4.8 0.00 0.00 0.00 69 1011.5
20260906132732 27 87 1.6 1.6 0.00 0.00 0.00 70 1011.2
20260906132228 27 105 3.2 3.2 0.00 0.00 0.00 71 1011.3
20260906131723 27 92 0.0 1.6 0.00 0.00 0.00 72 1011.2
20260906131218 27 108 0.0 1.6 0.00 0.00 0.00 73 1011.4
20260906130714 26 97 0.0 3.2 0.00 0.00 0.00 75 1011.5
20260906130209 26 106 1.6 4.8 0.00 0.00 0.00 75 1011.2
20260906125707 26 99 1.6 3.2 0.00 0.00 0.00 76 1011.4
20260906125205 26 104 3.2 3.2 0.00 0.00 0.00 76 1011.3
20260906124701 26 117 1.6 3.2 0.00 0.00 0.00 76 1011.4
20260906124156 26 81 1.6 1.6 0.00 0.00 0.00 77 1011.2
20260906123655 26 104 1.6 1.6 0.00 0.00 0.00 78 1011.1
20260906123150 25 96 1.6 3.2 0.00 0.00 0.00 78 1011.3
20260906122649 25 88 0.0 1.6 0.00 0.00 0.00 78 1011.1
20260906122145 25 94 0.0 1.6 0.00 0.00 0.00 79 1011.1
20260906121641 25 103 0.0 1.6 0.00 0.00 0.00 79 1011.2
20260906121138 25 124 0.0 0.0 0.00 0.00 0.00 79 1011.1
20260906120633 25 124 0.0 0.0 0.00 0.00 0.00 80 1010.7
20260906120131 25 125 0.0 0.0 0.00 0.00 0.00 79 1010.7
20260906115630 25 125 0.0 0.0 0.00 0.00 0.00 79 1010.8
20260906115126 25 125 0.0 0.0 0.00 0.00 0.00 79 1010.6
20260906114625 25 125 0.0 0.0 0.00 0.00 0.00 79 1010.6
20260906114120 25 126 0.0 0.0 0.00 0.00 0.00 79 1010.5
20260906113621 25 126 0.0 0.0 0.00 0.00 0.00 78 1010.5
20260906113120 25 124 0.0 0.0 0.00 0.00 0.00 78 1010.6
20260906112620 25 123 0.0 0.0 0.00 0.00 0.00 78 1010.7
20260906112117 25 125 0.0 0.0 0.00 0.00 0.00 77 1010.5
20260906111616 25 131 0.0 1.6 0.00 0.00 0.00 77 1010.5
20260906111111 25 121 1.6 3.2 0.00 0.00 0.00 78 1010.5
20260906110606 25 126 0.0 0.0 0.00 0.00 0.00 78 1010.6
20260906110106 25 126 0.0 0.0 0.00 0.00 0.00 78 1010.3
20260906105600 25 126 0.0 0.0 0.00 0.00 0.00 78 1010.5
20260906105056 25 126 0.0 0.0 0.00 0.00 0.00 78 1010.0
20260906104555 25 126 0.0 0.0 0.00 0.00 0.00 78 1010.0
20260906104049 25 133 0.0 0.0 0.00 0.00 0.00 79 1010.2
20260906103548 25 144 0.0 0.0 0.00 0.00 0.00 78 1010.5
20260906103044 25 144 0.0 0.0 0.00 0.00 0.00 78 1010.3
20260906102544 25 144 0.0 0.0 0.00 0.00 0.00 78 1010.1
20260906102039 25 143 0.0 0.0 0.00 0.00 0.00 78 1010.2
20260906101539 25 143 0.0 0.0 0.00 0.00 0.00 77 1010.0
20260906101033 26 143 0.0 0.0 0.00 0.00 0.00 77 1010.0
20260906100529 26 129 0.0 0.0 0.00 0.00 0.00 76 1009.9
20260906100029 26 202 0.0 0.0 0.00 0.00 0.00 76 1009.7
20260906095524 26 202 0.0 0.0 0.00 0.00 0.00 76 1009.9
20260906095020 26 202 0.0 0.0 0.00 0.00 0.00 76 1009.8
20260906094518 26 202 0.0 0.0 0.00 0.00 0.00 75 1009.6
20260906094014 26 202 0.0 0.0 0.00 0.00 0.00 75 1009.8
20260906093510 26 202 0.0 0.0 0.00 0.00 0.00 74 1009.6
20260906093010 26 203 0.0 0.0 0.00 0.00 0.00 74 1009.6
20260906092505 26 145 0.0 0.0 0.00 0.00 0.00 74 1009.6
20260906092000 26 140 0.0 0.0 0.00 0.00 0.00 74 1009.6
20260906091456 26 161 0.0 0.0 0.00 0.00 0.00 74 1009.5
20260906090953 26 193 0.0 0.0 0.00 0.00 0.00 73 1009.4
20260906090448 26 186 0.0 0.0 0.00 0.00 0.00 73 1009.4
20260906085947 26 183 0.0 0.0 0.00 0.00 0.00 74 1009.6
20260906085446 26 162 0.0 0.0 0.00 0.00 0.00 74 1009.3
20260906084945 26 149 0.0 0.0 0.00 0.00 0.00 74 1009.3
20260906084441 26 147 0.0 0.0 0.00 0.00 0.00 73 1009.1
20260906083939 27 167 0.0 0.0 0.00 0.00 0.00 73 1009.5
20260906083436 27 222 0.0 0.0 0.00 0.00 0.00 72 1009.4
20260906082934 27 221 0.0 0.0 0.00 0.00 0.00 72 1009.4
20260906082430 27 224 0.0 0.0 0.00 0.00 0.00 72 1009.1
20260906081926 27 226 0.0 0.0 0.00 0.00 0.00 72 1009.3
20260906081421 27 230 0.0 3.2 0.00 0.00 0.00 72 1009.5
20260906080917 27 225 0.0 1.6 0.00 0.00 0.00 72 1009.5
20260906080414 27 218 1.6 1.6 0.00 0.00 0.00 72 1009.6
20260906075912 27 223 0.0 1.6 0.00 0.00 0.00 71 1009.8
20260906075408 27 185 1.6 1.6 0.00 0.00 0.00 71 1009.8
20260906074903 27 139 0.0 0.0 0.00 0.00 0.00 71 1009.8
20260906074403 27 169 0.0 1.6 0.00 0.00 0.00 70 1009.8
20260906073901 27 100 0.0 0.0 0.00 0.00 0.00 70 1010.1
20260906073356 27 103 0.0 0.0 0.00 0.00 0.00 70 1009.7
20260906072853 27 134 0.0 1.6 0.00 0.00 0.00 69 1009.8
20260906072348 27 131 3.2 4.8 0.00 0.00 0.00 69 1009.7
20260906071844 27 259 0.0 3.2 0.00 0.00 0.00 69 1009.6
20260906071339 28 135 0.0 0.0 0.00 0.00 0.00 69 1009.7
20260906070835 28 122 0.0 3.2 0.00 0.00 0.00 69 1009.6
20260906070331 28 182 1.6 1.6 0.00 0.00 0.00 69 1009.6
20260906065827 28 128 0.0 1.6 0.00 0.00 0.00 69 1009.6
20260906065321 28 111 0.0 1.6 0.00 0.00 0.00 69 1009.8
20260906064817 28 177 0.0 1.6 0.00 0.00 0.00 69 1009.8
20260906064313 28 197 0.0 1.6 0.00 0.00 0.00 69 1010.1
20260906063813 28 137 1.6 1.6 0.00 0.00 0.00 69 1010.0
20260906063308 28 126 0.0 1.6 0.00 0.00 0.00 68 1010.2
20260906062803 28 33 0.0 1.6 0.00 0.00 0.00 68 1010.0
20260906062305 28 224 0.0 0.0 0.00 0.00 0.00 68 1009.8
20260906061758 28 142 0.0 0.0 0.00 0.00 0.00 68 1010.0
20260906061254 28 259 0.0 0.0 0.00 0.00 0.00 67 1009.9
20260906060749 28 259 0.0 0.0 0.00 0.00 0.00 67 1010.2
20260906060247 28 275 0.0 1.6 0.00 0.00 0.00 66 1010.0
20260906055742 28 135 0.0 1.6 0.00 0.00 0.00 66 1010.0
20260906055237 28 177 0.0 0.0 0.00 0.00 0.00 66 1009.9
20260906054733 28 91 1.6 1.6 0.00 0.00 0.00 65 1010.0
20260906054228 28 126 0.0 0.0 0.00 0.00 0.00 65 1010.1
20260906053724 28 198 0.0 0.0 0.00 0.00 0.00 65 1010.1
20260906053220 29 237 0.0 1.6 0.00 0.00 0.00 65 1010.2
20260906052715 29 219 0.0 1.6 0.00 0.00 0.00 64 1010.0
20260906052211 29 327 0.0 1.6 0.00 0.00 0.00 64 1010.2
20260906051708 29 180 0.0 0.0 0.00 0.00 0.00 64 1010.2
20260906051207 29 149 0.0 0.0 0.00 0.00 0.00 63 1010.2
20260906050702 29 163 1.6 3.2 0.00 0.00 0.00 63 1010.2
20260906050157 29 354 0.0 1.6 0.00 0.00 0.00 63 1010.2
20260906045655 30 197 1.6 3.2 0.00 0.00 0.00 62 1009.9
20260906045151 30 143 3.2 4.8 0.00 0.00 0.00 62 1010.0
20260906044647 30 226 1.6 1.6 0.00 0.00 0.00 62 1009.8
20260906044142 30 124 1.6 3.2 0.00 0.00 0.00 62 1009.9
20260906043638 30 259 0.0 1.6 0.00 0.00 0.00 62 1009.7
20260906043134 30 203 0.0 1.6 0.00 0.00 0.00 62 1010.0
20260906042633 30 100 1.6 4.8 0.00 0.00 0.00 62 1009.8
20260906042127 30 147 1.6 6.4 0.00 0.00 0.00 62 1009.7
20260906041624 30 87 1.6 3.2 0.00 0.00 0.00 62 1010.0
20260906041124 30 118 0.0 3.2 0.00 0.00 0.00 61 1010.0
20260906040620 30 127 0.0 1.6 0.00 0.00 0.00 61 1009.8
20260906040115 30 154 0.0 1.6 0.00 0.00 0.00 61 1009.8
20260906035610 30 170 0.0 1.6 0.00 0.00 0.00 61 1010.0
20260906035106 30 125 1.6 3.2 0.00 0.00 0.00 61 1009.8
20260906034605 30 146 3.2 4.8 0.00 0.00 0.00 60 1009.9
20260906034101 30 132 0.0 4.8 0.00 0.00 0.00 60 1009.8
20260906033556 31 87 3.2 4.8 0.00 0.00 0.00 60 1009.8
20260906033051 31 166 3.2 6.4 0.00 0.00 0.00 59 1010.0
20260906032548 31 127 3.2 6.4 0.00 0.00 0.00 59 1010.0
20260906032047 31 172 1.6 3.2 0.00 0.00 0.00 59 1009.9
20260906031543 31 123 3.2 4.8 0.00 0.00 0.00 58 1009.9
20260906031039 31 73 3.2 9.7 0.00 0.00 0.00 58 1009.8
20260906030538 31 186 1.6 6.4 0.00 0.00 0.00 58 1010.1
20260906030038 31 99 1.6 9.7 0.00 0.00 0.00 57 1009.9
20260906025538 31 170 4.8 11.3 0.00 0.00 0.00 57 1010.0
20260906025036 31 112 3.2 9.7 0.00 0.00 0.00 56 1009.9
20260906024532 31 131 3.2 6.4 0.00 0.00 0.00 55 1009.5
20260906024031 31 130 6.4 11.3 0.00 0.00 0.00 55 1009.5
20260906023528 31 112 1.6 6.4 0.00 0.00 0.00 54 1009.6
20260906023022 31 168 3.2 9.7 0.00 0.00 0.00 54 1009.3
20260906022518 32 68 3.2 6.4 0.00 0.00 0.00 53 1009.3
20260906022013 32 194 1.6 6.4 0.00 0.00 0.00 53 1009.0
20260906021508 32 109 4.8 14.5 0.00 0.00 0.00 52 1009.2
20260906021003 32 9 3.2 6.4 0.00 0.00 0.00 52 1009.2
20260906020502 32 119 1.6 11.3 0.00 0.00 0.00 51 1008.9
20260906020001 32 33 1.6 9.7 0.00 0.00 0.00 49 1009.0
20260906015500 32 34 6.4 12.9 0.00 0.00 0.00 49 1009.0
20260906015000 32 100 4.8 12.9 0.00 0.00 0.00 48 1008.9
20260906014455 33 123 9.7 12.9 0.00 0.00 0.00 48 1008.7
20260906013951 33 189 6.4 9.7 0.00 0.00 0.00 46 1008.4
20260906013447 34 72 11.3 17.7 0.00 0.00 0.00 44 1008.5
20260906012943 34 113 1.6 3.2 0.00 0.00 0.00 42 1008.3
20260906012443 34 167 3.2 4.8 0.00 0.00 0.00 42 1008.2
20260906011942 34 96 3.2 11.3 0.00 0.00 0.00 41 1008.0
20260906011438 34 180 4.8 4.8 0.00 0.00 0.00 41 1008.1
20260906010933 35 158 1.6 3.2 0.00 0.00 0.00 40 1008.0
20260906010428 35 139 1.6 3.2 0.00 0.00 0.00 39 1008.3
20260906005924 35 82 3.2 3.2 0.00 0.00 0.00 38 1008.1
20260906005424 35 80 1.6 3.2 0.00 0.00 0.00 38 1008.1
20260906004922 35 114 1.6 3.2 0.00 0.00 0.00 38 1008.1
20260906004416 35 102 1.6 4.8 0.00 0.00 0.00 38 1008.1
20260906003912 35 60 3.2 3.2 0.00 0.00 0.00 37 1008.1
20260906003407 35 84 1.6 3.2 0.00 0.00 0.00 37 1007.9
20260906002903 36 144 1.6 3.2 0.00 0.00 0.00 37 1008.0
20260906002402 36 167 1.6 4.8 0.00 0.00 0.00 37 1008.1
20260906001857 36 115 1.6 4.8 0.00 0.00 0.00 36 1007.8
20260906001354 36 87 1.6 4.8 0.00 0.00 0.00 36 1008.1
20260906000853 36 105 3.2 4.8 0.00 0.00 0.00 36 1007.8
20260906000355 36 157 0.0 3.2 0.00 0.00 0.00 36 1007.9
20260905235849 36 125 3.2 3.2 0.00 0.00 0.00 35 1007.8
20260905235343 36 49 1.6 4.8 0.00 0.00 0.00 35 1007.9
20260905234838 36 254 1.6 4.8 0.00 0.00 0.00 36 1007.7
20260905234334 36 76 3.2 4.8 0.00 0.00 0.00 36 1007.8
20260905233829 36 122 1.6 6.4 0.00 0.00 0.00 37 1007.9
20260905233323 36 93 1.6 3.2 0.00 0.00 0.00 37 1007.8
20260905232822 36 57 3.2 11.3 0.00 0.00 0.00 36 1007.8
20260905232319 36 95 1.6 3.2 0.00 0.00 0.00 36 1007.7
20260905231814 36 101 6.4 11.3 0.00 0.00 0.00 35 1007.8
20260905231309 36 95 3.2 11.3 0.00 0.00 0.00 35 1007.9
20260905230806 36 86 4.8 6.4 0.00 0.00 0.00 36 1007.6
20260905230304 36 213 1.6 6.4 0.00 0.00 0.00 36 1007.8